Weather History for KMFE - November, 2012

Change the Weather History Date:

Sunday, November 4, 2012

  Actual Average Record
Temperature  
Mean Temperature 77 °F 73 °F  
Max Temperature 86 °F 84 °F 96 °F (1948)
Min Temperature 67 °F 62 °F 38 °F (1903)
Degree Days  
Heating Degree Days 0 1  
Month to date heating degree days 0 4  
Since 1 July heating degree days 5 9  
Cooling Degree Days 12 9  
Month to date cooling degree days 53 36  
Year to date cooling degree days 4932 4218  
Growing Degree Days 28 (Base 50)    
Moisture  
Dew Point 67 °F    
Average Humidity 69    
Maximum Humidity 87    
Minimum Humidity 51    
Precipitation  
Precipitation T in 0.04 in 0.27 in (1952)
Month to date precipitation T 0.17  
Year to date precipitation 16.63 20.29  
Sea Level Pressure  
Sea Level Pressure 30.03 in    
Wind  
Wind Speed 6 mph (ESE)    
Max Wind Speed 22 mph    
Max Gust Speed 26 mph    
Visibility 10 miles    
Events      
T = Trace of Precipitation, MM = Missing Value Source: NWS Daily Summary

Daily Weather History Graph

Daily Weather History Graph

Search for Another Location

Airport or City:

Trip Planner

Search our weather history database for the weather conditions in past years. The results will help you decide how hot, cold, wet, or windy it might be!

Date:

Astronomy

Nov. 04, 2012 Rise Set
Actual Time 6:44 AM CST 5:48 PM CST
Civil Twilight 6:20 AM CST 6:12 PM CST
Nautical Twilight 5:52 AM CST 6:39 PM CST
Astronomical Twilight 5:25 AM CST 7:07 PM CST
Moon 10:32 PM CST (11/4) 11:22 AM CST (11/4)
Length of Visible Light 11h 52m
Length of Day
11h 04m
Waning Gibbous, 72% of the Moon is Illuminated
Nov 4
Waning Gibbous
Nov 6
Last Quarter
Nov 13
New
Nov 20
First Quarter
Nov 28
Full

Hourly Weather History & Observations

Time (CST) Temp. Heat Index Dew Point Humidity Pressure Visibility Wind Dir Wind Speed Gust Speed Precip Events Conditions
12:53 AM 75.9 °F - 69.1 °F 79% 30.00 in 10.0 mi SE 8.1 mph - N/A   Clear
1:53 AM 75.0 °F - 69.1 °F 82% 30.00 in 10.0 mi ESE 6.9 mph - N/A   Partly Cloudy
1:36 AM 75.2 °F - 69.8 °F 83% 30.01 in 10.0 mi East 4.6 mph - N/A   Mostly Cloudy
1:48 AM 75.2 °F - 69.8 °F 83% 30.01 in 10.0 mi East 5.8 mph - N/A   Scattered Clouds
1:53 AM 75.0 °F - 69.1 °F 82% 30.01 in 10.0 mi East 5.8 mph - N/A   Scattered Clouds
2:53 AM 73.9 °F - 69.1 °F 85% 29.99 in 10.0 mi ESE 5.8 mph - N/A   Clear
3:53 AM 75.0 °F - 69.1 °F 82% 29.99 in 10.0 mi ESE 8.1 mph - N/A   Scattered Clouds
4:53 AM 73.9 °F - 69.1 °F 85% 30.00 in 10.0 mi ESE 5.8 mph - N/A   Clear
5:53 AM 73.9 °F - 69.1 °F 85% 30.01 in 10.0 mi East 5.8 mph - N/A   Clear
6:53 AM 73.0 °F - 69.1 °F 87% 30.04 in 10.0 mi ESE 4.6 mph - N/A   Clear
7:53 AM 75.9 °F - 70.0 °F 82% 30.06 in 10.0 mi ENE 5.8 mph - N/A   Clear
8:53 AM 78.1 °F - 71.1 °F 79% 30.06 in 10.0 mi SE 6.9 mph - N/A   Partly Cloudy
9:53 AM 81.0 °F 84.9 °F 71.1 °F 72% 30.08 in 10.0 mi ESE 5.8 mph - N/A   Partly Cloudy
10:53 AM 82.9 °F 87.0 °F 70.0 °F 65% 30.07 in 10.0 mi Variable 5.8 mph - 0.00 in   Scattered Clouds
11:53 AM 84.9 °F 88.8 °F 69.1 °F 59% 30.04 in 10.0 mi South 3.5 mph - N/A   Mostly Cloudy
12:53 PM 86.0 °F 88.8 °F 66.9 °F 53% 30.00 in 10.0 mi Calm Calm - N/A   Clear
1:53 PM 82.9 °F 84.6 °F 64.9 °F 54% 29.99 in 10.0 mi ESE 12.7 mph - N/A   Mostly Cloudy
2:53 PM 78.1 °F - 64.0 °F 62% 29.99 in 10.0 mi SE 12.7 mph - N/A   Clear
3:53 PM 80.1 °F 81.2 °F 62.1 °F 54% 30.00 in 10.0 mi ESE 11.5 mph - N/A   Clear
4:53 PM 77.0 °F - 64.0 °F 64% 30.01 in 10.0 mi SSE 13.8 mph - N/A   Partly Cloudy
5:53 PM 73.0 °F - 63.0 °F 71% 30.03 in 10.0 mi SE 8.1 mph - N/A   Clear
6:53 PM 75.0 °F - 63.0 °F 66% 30.08 in 10.0 mi NE 9.2 mph - N/A   Mostly Cloudy
7:53 PM 73.0 °F - 63.0 °F 71% 30.07 in 10.0 mi Calm Calm - N/A   Clear
8:53 PM 71.1 °F - 62.1 °F 73% 30.08 in 10.0 mi South 5.8 mph - N/A   Clear
9:53 PM 70.0 °F - 62.1 °F 76% 30.06 in 10.0 mi SSE 3.5 mph - N/A   Clear
10:53 PM 68.0 °F - 62.1 °F 81% 30.07 in 10.0 mi Calm Calm - N/A   Clear